Погода в Краснодаре

Россия / Воронежская область     49°53′45″N   40°14′32″E
темп.,
°C
ветер,
м/с
пор.,
м/с
влажн.,
%
обл.,
%
осадки,
мм/ч
давл.,
гПа
погр.,
м
20 апреля, вт
вт2000:00+8в368799 0.0 1014130
03:00+7в3792100 0.0 1014196
06:00+7в3996100 0.0 1013275
09:00+10в61086100 0.0 1010702
12:00+11в61086100 0.3 1009906
15:00+11вюв61293100 6.1 1006823
18:00+11вюв4897100 6.7 1003350
21:00+10ю379778 10.3 1003186
21 апреля, ср
ср2100:00+10ю8148865 0.6 1004609
03:00+9ю81389100 1.2 1004920
06:00+9юз91486100 0.2 1006951
09:00+9зюз71185100 0.3 1010712
12:00+11зюз6107997 0.4 10121013
15:00+14зюз7105599 0.8 10131782
18:00+12зюз6106089 0.0 1015644
21:00+9ююз34759 0.0 101763
22 апреля, чт
чт2200:00+8ююз377975 0.1 1017122
03:00+7ююз37879 0.4 1018117
06:00+6юз37905 0.0 1020168
09:00+12зюз45630 0.0 1021745
12:00+16зюз35415 0.0 10211761
15:00+17юз4541100 0.0 10202281
18:00+15ююз225897 0.0 102144
21:00+13ю2260100 0.0 102130
23 апреля, пт
пт2300:00+12ю2363100 0.0 102154
03:00+12ю226413 0.1 102134
06:00+10ю237678 0.0 102262
09:00+15ююз455519 0.1 1021560
12:00+17ююз5639100 0.1 10202506
15:00+17ю564159 0.1 10191911
18:00+16зюз355364 0.0 1018290
21:00+11ю34675 0.1 101849
24 апреля, сб
сб2400:00+10ю22748 0.3 101728
03:00+9ююз36826 0.3 1016106
06:00+8ююз388599 0.0 1015185
09:00+13ююз6962100 0.0 1014785
12:00+14зюз91159100 0.4 10131756
15:00+7зсз6878100 1.3 1015821
18:00+10зсз476017 0.2 10151247
21:00+7юз22720 0.4 101615